Location: Passau
(48.5830°N, 13.4830°E)
Time: 21:23:57
(UTC+02:00)

Vanguard 3 - Pass Details

Date: 27 May 2024
Orbit: 509 x 3231 km, 33.3° (Epoch: 16 June)

Event Time Altitude Azimuth Distance (km) Brightness Sun altitude
Rises 00:51:11 0° 267° (W) 5,538 11.4 -20.0°
Reaches altitude 10° 00:55:56 10° 251° (WSW) 4,976 11.0 -20.1°
Maximum altitude 01:05:23 20° 212° (SSW) 4,850 10.6 -20.1°
Enters shadow 01:07:04 20° 205° (SSW) 4,961 10.6 -20.1°
Drops below altitude 10° 01:16:50 10° 175° (S) 6,096 - -20.0°
Sets 01:23:50 0° 161° (SSE) 7,176 - -19.9°
